CAPE
0 1 1 0 0 0 2 2 3 2 1 0 0 0 0 0 0 0 0 0 0 0 0 0 0 0 0 0 2 92 55 9 8 39 36 101 38 15 0 0 0 11 0 31 54
0 0 0 1 0 0 1 1 2 0 1 1 0 0 0 0 0 0 0 0 0 0 0 0 0 0 0 0 14 105 62 24 8 25 48 53 35 39 0 0 0 0 8 44 3
1 1 1 1 0 0 0 0 0 1 0 0 1 0 0 0 0 0 0 0 0 0 0 0 0 0 0 0 1 123 6 38 22 13 122 50 33 29 0 0 0 0 0 0 0
2 1 1 2 1 1 0 1 0 0 0 0 0 0 0 0 0 0 0 0 0 0 0 0 0 0 0 0 0 49 31 104 80 45 105 40 45 21 6 0 0 0 0 0 0
0 1 1 1 0 0 1 1 1 0 0 0 1 0 0 0 0 0 0 0 0 0 0 0 0 0 0 0 0 19 131 186 214 65 111 127 16 8 46 0 4 6 0 0 0
0 1 2 2 1 0 2 1 1 0 0 0 1 0 0 0 0 0 0 0 0 0 0 0 0 0 0 0 0 197 163 170 180 126 94 77 5 5 66 19 5 9 0 0 10
1 1 0 0 0 0 2 1 1 0 0 0 0 0 0 0 0 0 0 0 0 0 0 0 0 0 0 0 0 340 86 167 155 225 173 99 7 10 57 53 17 32 28 0 19
1 0 0 1 2 2 1 1 0 0 0 0 1 0 0 0 0 0 0 0 0 0 0 0 0 0 0 0 0 243 134 63 124 147 80 37 41 81 71 52 46 22 57 22 17
1 0 0 0 0 0 0 0 0 0 0 0 0 0 0 0 0 0 0 0 0 0 0 0 0 0 0 0 0 76 108 53 131 146 98 14 97 87 29 47 64 40 47 40 13
0 0 0 1 0 0 0 0 0 0 0 0 0 0 0 0 0 0 0 0 0 0 0 0 0 0 0 0 0 0 21 75 61 142 95 11 43 36 43 48 58 57 48 28 30
0 0 0 0 0 0 0 0 0 0 0 0 0 0 0 0 0 0 0 0 0 0 0 0 0 0 0 0 0 0 0 0 148 102 56 30 13 6 18 40 4 41 16 0 37
0 0 0 0 0 0 0 0 0 0 0 0 0 0 0 0 0 0 0 0 0 0 0 0 0 0 0 0 0 0 0 85 116 112 11 0 5 30 18 11 15 44 21 15 13
0 0 0 0 0 0 0 0 0 0 0 0 0 0 0 0 0 0 0 0 0 0 0 0 0 0 0 0 0 0 0 110 59 21 1 0 0 6 1 16 39 39 49 0 2
0 0 0 0 0 0 0 0 0 0 0 0 0 0 0 0 0 0 0 0 0 0 0 0 0 0 0 0 0 0 0 16 12 11 0 0 0 0 0 5 23 30 6 5 9
0 0 0 0 0 0 0 0 0 0 0 0 0 0 0 0 0 0 0 0 0 0 0 0 0 0 0 0 0 0 0 0 0 0 0 0 0 0 0 0 20 18 15 10 1
0 0 0 0 0 0 0 0 0 0 0 0 0 0 0 0 0 0 0 0 0 0 0 0 0 0 0 0 0 0 0 0 11 0 0 0 0 0 0 0 3 41 48 26 4
0 0 0 0 0 0 0 0 0 0 0 0 0 0 0 0 0 0 0 0 0 0 0 0 0 0 0 0 0 0 0 0 0 4 0 0 0 0 0 3 3 8 0 17 16
0 0 0 0 0 0 0 0 0 0 0 0 0 0 0 0 0 0 0 0 0 0 0 0 0 0 0 0 0 0 0 0 0 0 0 0 0 0 24 57 144 109 57 32 9
0 0 0 0 0 0 0 0 0 0 0 0 0 0 0 0 0 0 0 0 0 0 0 0 0 0 0 0 0 0 0 0 0 0 0 0 0 10 88 75 166 158 76 38 4
0 0 0 0 0 0 0 0 0 0 0 0 0 0 0 0 0 0 0 0 0 0 0 0 0 0 0 0 0 0 0 0 0 0 0 0 0 0 43 152 155 195 120 39 11
0 0 0 0 0 0 0 0 0 0 0 0 0 0 0 0 0 0 0 0 0 0 0 0 0 0 0 0 0 0 0 0 0 0 0 0 0 77 104 224 209 155 105 68 20
0 0 0 0 0 0 0 0 0 0 0 0 0 0 0 0 0 0 7 0 0 0 0 0 0 0 0 0 0 0 0 0 0 0 0 0 0 49 126 216 173 100 47 14 17
0 0 0 0 0 0 0 0 0 0 0 0 0 0 0 0 0 0 0 0 0 0 0 0 0 0 0 0 0 0 0 0 0 0 0 0 0 15 59 108 102 58 35 40 17
0 0 0 0 0 0 0 0 0 0 0 0 0 0 0 0 0 0 0 0 0 0 0 0 0 0 0 0 0 0 0 0 0 0 0 0 0 0 94 99 72 60 11 33 72
0 0 0 0 0 0 0 0 0 0 0 0 0 0 0 0 0 0 0 0 0 25 0 0 3 0 0 0 0 0 0 0 0 0 0 0 0 0 101 87 72 15 13 2 3
0 0 0 0 0 0 0 0 0 0 0 0 0 0 0 0 0 0 0 0 0 0 0 0 9 0 0 0 0 0 0 0 0 0 8 0 0 18 51 49 25 16 14 8 16
0 0 0 0 0 0 0 0 0 0 0 0 0 0 0 0 0 0 0 0 0 0 0 0 0 0 0 0 0 0 0 0 0 17 53 0 29 120 134 111 14 1 0 3 5
CIN
0 0 0 0 0 0 0 0 0 0 0 0 0 0 0 0 0 0 0 0 0 0 0 0 0 0 0 0 -30 -9 -27 -16 -15 -12 -54 -34 -49 -55 -22 0 0 -72 0 -198 -187
0 0 0 0 0 0 0 -0 0 -0 0 0 0 0 0 0 0 0 0 0 0 0 0 0 0 0 0 0 -64 -6 -10 -23 -43 -49 -60 -61 -67 -87 0 0 0 0 -137 -142 -23
0 0 0 0 0 0 -0 -0 0 -0 0 0 0 0 0 0 0 0 0 0 0 0 0 0 0 0 0 0 -60 -18 -28 -19 -53 -53 -57 -92 -76 -87 0 0 0 0 0 0 0
0 -0 0 -0 -0 0 0 0 0 -0 -0 -0 0 0 0 0 0 0 0 0 0 0 0 0 0 0 0 0 0 -37 -23 -8 -47 -56 -17 -53 -57 -84 -53 0 0 0 0 0 0
-0 0 0 0 0 0 0 0 0 0 0 -0 0 0 0 0 0 0 0 0 0 0 0 0 0 0 0 0 0 -76 -39 -48 -10 -26 -10 -12 -39 -75 -36 0 -72 -125 0 0 0
-0 0 -0 -0 0 -0 -0 -0 0 0 0 0 0 0 0 0 0 0 0 0 0 0 0 0 0 0 0 0 0 -31 -28 -47 -29 -12 -7 -6 -46 -99 -46 -92 -79 -103 0 0 -116
0 -0 0 0 0 0 0 -0 0 -0 0 0 0 0 0 0 0 0 0 0 0 0 0 0 0 0 0 0 0 -23 -22 -18 -26 -8 -19 -12 -7 -55 -33 -59 -74 -89 -105 0 -102
-0 -0 -0 0 0 0 0 0 0 0 0 0 -0 0 0 0 0 0 0 0 0 0 0 0 0 0 0 0 0 -18 -25 -21 -36 -137 -6 -13 -15 -14 -49 -26 -45 -80 -85 -87 -88
0 0 0 0 0 0 0 0 0 0 0 -0 0 0 0 0 0 0 0 0 0 0 0 0 0 0 0 0 0 -63 -20 -26 -25 -31 -25 -42 -9 -19 -50 -30 -31 -65 -77 -85 -81
-0 -0 0 0 0 0 0 0 0 0 0 0 0 0 0 0 0 0 0 0 0 0 0 0 0 0 0 0 0 0 -70 -20 -15 -18 -23 -37 -21 -27 -36 -20 -23 -39 -53 -84 -100
0 0 0 0 0 0 0 0 0 0 0 0 0 0 0 0 0 0 0 0 0 0 0 0 0 0 0 0 0 0 0 0 -66 -66 -29 -37 -54 -36 -22 -37 -44 -13 -41 -0 -101
0 0 0 0 0 0 0 0 0 0 0 0 0 0 0 0 0 0 0 0 0 0 0 0 0 0 0 0 0 0 0 -59 -65 -51 -58 -14 -22 -32 -24 -53 -49 -12 -34 -48 -78
0 0 0 0 0 0 0 0 0 0 0 0 0 0 0 0 0 0 0 0 0 0 0 0 0 0 0 0 0 0 0 -47 -65 -107 -24 0 0 -25 -33 -32 -15 -20 -24 0 -51
0 0 0 0 0 0 0 0 0 0 0 0 0 0 0 0 0 0 0 0 0 0 0 0 0 0 0 0 0 0 0 -32 -82 -54 0 0 0 0 0 -40 -28 -26 -50 -71 -99
0 0 0 0 0 0 0 0 0 0 0 0 0 0 0 0 0 0 0 0 0 0 0 0 0 0 0 0 0 0 0 0 -4 0 0 0 0 0 0 0 -94 -67 -97 -93 -122
0 0 0 0 0 0 0 0 0 0 0 0 0 0 0 0 0 0 0 0 0 0 0 0 0 0 0 0 0 0 0 0 -82 -7 0 0 0 0 0 0 -110 -93 -80 -100 -156
0 0 0 0 0 0 0 0 0 0 0 0 0 0 0 0 0 0 0 0 0 0 0 0 0 0 0 0 0 0 0 0 0 -12 0 0 0 0 0 -50 -91 -167 0 -132 -109
0 0 0 0 0 0 0 0 0 0 0 0 0 0 0 0 0 0 0 0 0 0 0 0 0 0 0 0 0 0 0 0 0 0 0 0 0 0 -238 -234 -126 -105 -108 -138 -117
0 0 0 0 0 0 0 0 0 0 0 0 0 0 0 0 0 0 0 0 0 0 0 0 0 0 0 0 0 0 0 0 0 0 0 0 0 -207 -242 -221 -152 -127 -150 -159 -150
0 0 0 0 0 0 0 0 0 0 0 0 0 0 0 0 0 0 0 0 0 0 0 0 0 0 0 0 0 0 0 0 0 0 0 0 0 0 -153 -193 -176 -128 -154 -172 -192
0 0 0 0 0 0 0 0 0 0 0 0 0 0 0 0 0 0 0 0 0 0 0 0 0 0 0 0 0 0 0 0 0 0 0 0 0 -292 -255 -235 -207 -180 -200 -192 -205
0 0 0 0 0 0 0 0 0 0 0 0 0 0 0 0 0 0 -77 0 0 0 0 0 0 0 0 0 0 0 0 0 0 0 0 0 0 -387 -311 -253 -236 -213 -207 -226 -188
0 0 0 0 0 0 0 0 0 0 0 0 0 0 0 0 0 0 0 0 0 0 0 0 0 0 0 0 0 0 0 0 0 0 0 0 0 -393 -316 -296 -261 -263 -261 -220 -198
0 0 0 0 0 0 0 0 0 0 0 0 0 0 0 0 0 0 0 0 0 0 -67 0 0 0 0 0 0 0 0 0 0 0 0 0 0 -0 -312 -299 -342 -309 -344 -251 -167
0 0 0 0 0 0 0 0 0 0 0 0 0 0 0 0 0 0 0 0 0 -102 -0 0 -49 0 0 0 0 0 0 0 0 0 0 0 0 0 -345 -333 -331 -371 -342 -125 -199
0 0 0 0 0 0 0 0 0 0 0 0 0 0 0 0 0 0 0 0 0 0 0 0 -87 0 0 0 0 0 0 0 0 0 -100 -2 0 -398 -374 -372 -355 -380 -384 -320 -320
0 0 0 0 0 0 0 0 0 0 0 0 0 0 0 0 0 0 0 0 0 0 0 0 0 0 0 0 0 0 0 0 0 -60 -155 0 -127 -393 -340 -310 -393 -455 0 0 0
Wind_Speed
26 24 24 24 25 26 26 25 25 25 24 24 24 23 23 23 23 16 12 20 19 8 6 2 5 8 6 10 12 14 14 11 6 18 27 25 24 20 11 12 20 23 28 35 32
26 26 25 24 25 26 26 25 25 25 25 24 24 24 23 23 21 23 26 24 22 3 5 2 3 3 9 13 13 14 15 11 3 19 21 22 27 27 22 21 7 4 19 34 34
24 27 27 26 25 26 26 26 25 25 25 25 24 24 23 21 19 16 17 20 10 3 3 3 2 7 12 12 13 13 13 6 4 31 22 17 30 13 26 25 27 32 36 35 34
20 25 26 26 25 24 25 26 26 25 25 24 24 23 23 16 15 13 16 8 5 6 4 5 5 11 13 14 12 11 11 5 19 31 28 18 2 29 26 24 33 29 33 34 34
19 22 24 26 27 25 25 26 26 25 24 24 23 22 18 16 18 19 12 6 9 10 10 12 7 11 13 16 14 15 12 9 15 31 29 15 5 12 20 16 26 25 27 31 34
21 24 25 24 25 25 25 25 25 24 24 23 21 20 18 18 17 16 4 5 12 11 16 15 14 13 14 16 15 15 13 7 20 27 25 23 9 7 5 19 26 25 28 27 31
23 24 27 27 25 25 24 23 23 22 22 21 19 17 19 22 16 12 6 10 13 15 18 18 13 18 15 16 15 7 9 11 9 21 23 7 3 24 9 27 28 25 26 22 28
24 26 29 28 27 26 24 23 22 20 19 17 15 16 21 16 17 13 12 12 14 16 13 20 16 18 18 19 15 12 13 12 8 28 23 17 11 10 27 20 22 22 19 16 18
26 27 28 27 27 25 24 23 21 18 15 13 13 15 19 18 17 16 13 13 13 17 18 15 18 20 19 18 17 14 20 14 10 8 19 17 7 6 30 26 18 19 16 10 4
26 28 28 27 25 24 25 21 15 14 15 14 16 16 16 16 14 13 15 8 13 13 16 19 21 21 19 18 23 19 18 18 13 3 13 14 13 6 7 11 13 13 14 9 6
29 29 29 27 25 24 22 16 19 18 19 22 19 20 20 17 13 15 13 12 12 15 21 22 25 27 20 19 15 14 15 14 16 16 15 15 12 5 2 8 9 24 12 15 15
30 31 29 27 24 21 18 17 18 20 22 22 23 22 23 19 18 13 9 16 16 20 17 22 31 25 22 20 18 18 14 14 12 9 13 18 20 13 17 7 39 32 10 13 11
32 31 29 27 23 15 17 17 19 22 18 19 16 14 14 11 16 15 13 15 19 21 23 25 25 22 21 21 21 21 19 16 16 12 12 14 20 21 13 25 30 29 24 19 15
32 32 30 28 15 16 17 18 22 14 17 18 16 13 10 13 16 15 15 15 19 22 21 24 19 21 25 24 22 25 21 17 13 17 23 19 21 20 5 16 30 34 43 30 11
34 33 27 21 16 14 16 24 17 14 17 20 16 12 11 13 14 15 15 17 19 20 21 24 24 25 28 26 22 22 18 17 17 20 21 21 22 22 13 18 26 36 46 43 19
27 25 23 14 11 9 22 23 14 17 17 16 14 15 11 15 15 12 15 16 16 18 22 25 19 20 24 24 23 17 20 19 18 21 29 24 22 23 16 21 9 17 43 47 22
24 16 11 12 12 17 23 17 15 15 18 17 16 14 11 15 16 14 15 20 22 26 27 24 28 24 22 24 21 23 23 27 31 29 29 21 19 24 15 12 11 18 27 45 35
23 13 14 12 14 17 18 14 15 15 15 17 15 13 13 16 16 18 16 20 21 20 25 29 30 28 22 26 24 24 25 27 32 32 25 16 23 20 18 18 2 20 17 16 36
14 18 18 16 14 15 17 16 14 13 16 17 15 14 15 16 16 17 18 21 21 22 27 25 28 23 23 21 21 24 31 27 24 23 25 23 22 19 16 13 4 6 12 14 11
19 19 20 19 20 18 18 16 15 13 15 15 14 15 17 18 16 16 18 20 20 20 21 22 27 23 23 21 24 24 19 29 29 33 32 26 25 20 16 12 6 6 7 7 8
17 18 19 19 18 21 18 17 16 15 13 14 14 16 18 19 17 18 19 18 19 19 18 22 25 25 23 24 25 25 28 25 25 29 35 30 27 18 17 11 6 5 8 7 8
16 17 17 16 18 20 20 16 16 16 15 14 15 17 18 18 19 20 20 18 16 18 20 20 21 30 31 23 24 24 27 28 32 32 28 31 31 19 14 10 9 8 7 9 11
15 16 16 16 17 20 17 16 16 17 17 16 16 16 16 17 20 21 19 16 19 19 19 19 23 29 28 25 22 22 23 24 26 25 32 33 29 17 14 11 10 6 8 6 7
12 16 16 16 16 16 17 17 16 17 17 17 17 17 16 17 16 19 18 19 17 19 18 19 22 24 33 27 25 28 28 26 26 33 32 31 27 20 15 12 12 10 7 6 8
13 15 16 17 18 17 17 17 15 16 19 20 17 19 16 17 16 17 15 19 18 18 20 21 26 22 23 24 24 26 28 28 30 28 33 32 26 18 14 13 10 7 5 6 9
13 13 15 17 17 17 16 16 16 15 19 20 19 20 16 14 14 16 16 14 16 18 19 21 26 24 26 25 25 26 26 28 28 27 28 26 28 20 15 13 13 11 8 7 8
13 14 14 16 18 17 15 15 15 15 17 20 21 19 17 15 16 18 19 18 18 18 18 18 21 23 30 28 27 29 27 28 31 28 26 28 26 14 15 16 15 13 12 9 7
Wind_Direction
352 354 351 342 323 310 303 301 300 298 295 294 295 292 288 289 285 307 314 245 248 254 273 351 311 291 329 316 349 17 217 238 221 207 191 192 181 193 224 127 185 179 124 140 121
349 342 348 344 334 313 305 302 300 297 293 291 289 290 289 288 296 272 236 240 239 180 241 203 289 11 298 296 335 313 260 276 232 218 200 196 130 160 162 181 168 171 94 122 127
3 340 336 337 339 320 303 300 300 297 295 290 288 286 286 292 293 290 272 247 253 212 235 256 45 283 274 301 309 332 276 356 74 177 201 107 139 226 114 175 123 119 129 129 128
21 355 342 338 334 334 317 299 298 297 295 291 286 284 280 298 283 298 283 247 225 232 226 257 255 265 263 267 304 298 348 11 130 171 195 117 157 145 178 179 131 117 124 131 137
26 13 358 340 325 325 319 307 296 296 296 292 287 285 283 285 275 279 291 227 239 235 237 244 238 257 263 258 276 279 317 280 229 179 191 216 106 122 197 93 119 116 122 129 143
22 10 359 352 338 327 318 309 302 297 297 295 291 285 278 272 281 283 307 212 234 237 239 242 247 255 265 265 268 289 314 340 244 204 164 178 227 220 257 108 121 121 128 128 139
16 9 353 345 341 333 326 320 311 305 300 302 296 287 273 261 278 280 263 251 240 245 240 244 255 250 267 269 293 319 344 34 72 213 210 203 138 225 238 131 129 128 131 125 138
10 3 344 336 326 328 324 316 314 314 309 308 305 292 265 274 275 262 258 259 251 251 257 242 252 255 262 267 283 283 292 267 272 196 208 229 246 252 209 137 136 130 127 125 127
5 358 347 340 328 325 316 310 313 328 333 327 315 294 267 276 262 254 256 263 250 250 249 251 247 253 260 264 262 270 242 257 266 98 227 248 313 257 160 147 140 135 130 128 179
2 354 342 338 329 322 313 319 354 348 335 332 305 288 277 273 265 255 253 263 254 244 241 241 243 247 253 256 246 255 260 261 274 40 258 263 278 104 140 151 153 146 141 137 155
358 351 339 332 328 322 327 341 327 322 314 295 290 281 279 275 273 259 249 253 253 243 240 238 238 238 245 253 261 271 272 270 271 274 267 264 283 275 186 236 167 229 155 148 144
355 344 336 333 333 333 341 332 334 330 302 300 281 274 267 274 260 260 238 250 245 240 242 238 237 241 249 250 255 260 272 271 289 315 282 266 265 281 253 258 211 226 230 163 153
347 343 338 334 334 1 341 341 345 336 311 308 308 285 280 277 262 253 237 255 244 240 240 237 247 242 248 247 250 257 264 266 273 287 299 283 280 268 273 240 234 235 241 247 166
344 338 332 315 5 350 335 345 332 2 306 309 305 292 288 280 268 264 243 249 249 240 240 245 250 241 244 247 251 251 261 270 278 267 255 280 270 265 262 266 195 233 225 236 187
335 326 335 348 348 359 353 320 347 339 293 297 312 299 287 275 280 265 246 248 248 241 243 243 243 245 244 246 253 255 263 265 272 275 279 275 271 265 297 260 190 189 208 218 245
295 287 344 20 27 1 302 317 352 303 292 302 313 291 283 278 284 274 247 257 258 251 249 245 257 254 252 251 251 262 261 264 274 278 259 274 270 269 283 246 220 179 218 206 244
290 259 46 41 49 341 310 348 319 306 297 291 292 292 287 281 277 271 252 248 248 243 243 251 250 256 256 251 253 249 248 250 249 254 257 279 273 272 298 310 159 168 165 189 226
292 48 69 87 54 359 359 16 330 314 299 305 300 303 288 288 279 267 264 254 256 255 248 246 247 247 252 249 250 245 244 248 247 248 264 280 268 278 287 282 244 154 166 208 225
309 48 60 68 119 46 40 347 351 343 319 298 305 308 292 294 286 270 264 259 261 255 249 249 250 257 251 252 247 249 244 250 256 265 258 266 275 281 289 296 254 191 148 163 205
53 45 42 69 77 55 26 40 37 36 335 319 303 308 298 293 287 276 266 265 264 263 256 257 252 256 253 255 252 252 251 246 250 247 249 261 265 269 282 290 257 211 164 171 201
49 48 52 87 70 41 37 47 51 84 42 1 333 309 297 290 290 279 272 272 267 264 262 258 256 252 257 251 247 249 249 254 254 255 248 253 261 276 276 284 245 232 238 212 197
37 59 73 94 60 54 50 67 68 33 343 343 342 311 299 293 288 282 272 273 275 266 261 262 260 251 251 259 265 259 253 251 249 249 255 254 259 277 279 278 259 251 253 255 252
32 43 109 76 58 45 65 59 53 30 354 354 346 328 316 309 289 284 284 289 275 270 261 261 262 253 253 255 259 256 255 258 255 258 250 249 257 271 272 267 263 254 262 268 256
13 43 55 64 64 63 67 62 52 349 2 2 351 339 328 318 312 304 291 281 286 280 276 273 264 259 248 252 255 254 257 259 254 250 251 253 257 258 261 262 258 262 269 272 273
323 34 71 71 55 74 91 84 52 18 359 341 343 336 338 309 303 304 313 286 282 279 281 273 259 259 260 256 261 259 258 260 253 258 252 254 257 256 249 254 256 252 277 282 278
13 25 18 67 85 86 86 93 59 49 10 306 331 300 327 338 322 313 303 310 288 281 281 275 260 259 258 259 261 256 268 265 257 257 261 259 256 262 248 250 251 261 274 281 284
339 14 34 39 55 67 95 93 86 58 27 354 319 308 302 316 295 279 272 293 278 289 287 280 262 263 255 261 256 255 267 262 260 260 260 257 258 244 240 244 249 262 273 282 290